Location: Lake Crest
(37.6062°N, 88.9176°W)
Time: 04:04:55
(UTC+00:00)

Daily predictions for brighter satellites

Satellite Brightness Start Highest point End
(mag) Time Altitude Azimuth Time Altitude Azimuth Time Altitude Azimuth
Cosmos 2084 Rocket 3.7 00:16:59 10° NNW 00:21:23 56° NE 00:25:51 10° SE
Cosmos 807 4.5 00:18:53 10° SSE 00:21:49 49° E 00:25:15 10° NNE
Cosmos 1937 Rocket 3.6 00:17:21 10° SSW 00:22:37 90° E 00:27:52 10° NNE
Cosmos 1544 4.1 00:20:24 10° SSW 00:23:58 51° W 00:27:33 10° N
CZ-4 R/B 4.5 00:19:58 10° SSE 00:24:03 89° E 00:28:12 10° NNW
USA 234 4.4 00:21:44 10° ENE 00:26:26 21° ESE 00:31:07 10° SSE
Cosmos 2112 Rocket 4.1 00:23:42 10° NNW 00:28:56 88° WSW 00:34:11 10° SSE
CZ-2C R/B 1.2 00:25:51 10° WSW 00:29:29 56° S 00:32:43 11° E
Cosmos 1939 Rocket 3.4 00:25:44 10° S 00:29:48 66° W 00:33:56 10° NNW
Cosmos 1943 3.2 00:24:33 10° NNW 00:30:10 64° ENE 00:35:47 10° SSE
Cosmos 1680 Rocket 3.9 00:26:49 10° NNW 00:32:01 70° WSW 00:37:14 10° S
CSL-04 Debris 4.3 00:31:14 10° SSE 00:36:26 53° ENE 00:41:41 10° N
Iridium 4 Rocket 3.7 00:32:47 10° S 00:37:38 78° W 00:42:59 10° N
Cosmos 1975 Rocket 3.0 00:35:44 10° N 00:40:01 61° E 00:44:16 10° SSE
Helios 1A Rocket 4.1 00:37:01 10° S 00:40:57 47° W 00:44:57 10° NNW
CSL-04 Rocket 3.8 00:37:56 10° SSE 00:43:13 58° ENE 00:48:36 10° N
Cosmos 1174 4.5 00:42:26 10° SSW 00:46:55 58° ESE 00:52:37 10° NE
Cosmos 1603 4.0 00:46:26 10° NNW 00:52:04 71° WSW 00:57:37 10° SSE
HJ-1C 3.2 00:54:08 10° SSE 00:57:23 66° ENE 01:00:40 10° N
H-2A R/B 1.9 00:53:13 10° SSE 00:58:06 65° ENE 01:03:06 10° N
Meteor 1-21 4.4 00:52:55 10° NNW 00:58:32 78° W 01:04:05 10° S
Cosmos 1072 Rocket 4.4 00:53:36 10° S 00:59:46 73° E 01:06:05 10° N
Sich 1 Rocket 3.8 00:56:07 10° S 01:00:35 79° W 01:05:07 10° N
ATLAS 2AS CENTAUR R/B 3.8 00:54:24 10° SSE 01:00:42 27° ESE 01:07:04 10° NE
BREEZE-M TANK 4.0 00:46:11 10° WSW 01:01:30 74° NNW 01:05:15 13° ENE
Nadezhda 4 Rocket 4.4 00:57:30 10° N 01:03:08 37° ENE 01:07:55 14° SE
Meteor 1-12 Rocket 4.2 00:57:35 10° S 01:03:29 73° E 01:09:18 10° NNE
Cosmos 2034 Rocket 4.1 01:00:23 10° SSE 01:06:31 53° E 01:12:39 10° NNE
CENTAUR R/B 4.1 01:02:41 10° NNW 01:09:46 32° NE 01:14:15 21° E
GOES 2 Rocket 4.5 01:08:03 10° SW 01:11:15 21° S 01:12:20 19° SSE
CZ-4 R/B 3.3 01:08:47 10° SSW 01:12:36 33° W 01:16:25 10° NNW
Okean 1 Rocket 4.1 01:16:18 27° ENE 01:16:18 27° ENE 01:19:24 10° NNE
Okean 2 Rocket 3.1 01:12:30 10° S 01:17:00 83° W 01:21:30 10° N
Ariane Rocket 3.3 01:16:43 26° SE 01:19:10 45° ENE 01:23:58 10° N
Cosmos 1707 2.7 01:15:27 10° N 01:19:17 83° W 01:23:06 10° S
Cosmos 1300 Rocket 3.6 01:15:18 10° S 01:19:40 79° W 01:24:07 10° N
USA 238 DEB 4.2 01:18:57 10° NNW 01:25:57 48° NE 01:29:18 30° ESE
USA 238 4.2 01:19:03 10° NNW 01:26:03 47° NE 01:29:22 30° ESE
DELTA 2 R/B (1) 4.1 01:21:06 10° W 01:26:26 49° SSW 01:29:07 27° SSE
ARGOS 3.1 01:22:04 10° SSE 01:27:25 88° W 01:32:49 10° NNW
In-Cosmos 22 4.0 01:24:12 10° N 01:29:31 82° E 01:34:17 13° S
SJ-6B 3.2 01:33:13 42° NE 01:33:13 42° NE 01:36:15 10° N
SL-08 RB Rocket 3.6 01:30:56 27° SSE 01:33:27 78° ENE 01:38:01 10° N
CZ-2C R/B 4.4 01:30:40 10° SSW 01:35:30 41° W 01:40:40 10° NNW
CZ-2C R/B 2.6 01:30:11 10° NNE 01:35:46 74° ESE 01:41:22 10° S
Cosmos 1634 Rocket 4.3 01:37:16 38° ESE 01:37:59 40° E 01:43:40 10° NNE
USA 186 2.4 01:43:19 49° NNW 01:43:19 49° NNW 01:45:49 10° NNW
Cosmos 1536 Rocket 3.5 01:39:44 10° N 01:44:12 90° WNW 01:45:33 45° S
SPOT 3 Rocket 4.3 01:44:55 33° NE 01:44:55 33° NE 01:48:53 10° N
Cosmos 2285 Rocket 3.9 01:41:42 10° SSW 01:47:58 81° ESE 01:54:20 10° NNE
Cosmos 1025 Rocket 3.6 01:44:45 10° NNW 01:49:03 56° W 01:51:49 21° SSW
Cosmos 1844 3.8 01:46:03 10° SSW 01:51:45 75° WNW 01:57:26 10° NNE
NOSS 3-2 (A) 4.0 01:45:16 10° NNW 01:53:02 75° NE 01:56:30 40° SE
Meteor 2-13 Rocket 4.4 01:48:10 10° N 01:54:17 63° E 01:55:29 53° SE
ISS -0.9 01:52:54 10° NW 01:54:32 13° NNW 01:55:46 11° N
Cosmos 1844 Rocket 3.4 01:50:58 10° SW 01:56:23 53° WNW 02:01:52 10° NNE
Cosmos 1092 Rocket 3.8 01:57:57 10° N 02:04:06 73° E 02:05:04 62° SE
Cosmos 2195 Rocket 4.3 01:58:49 10° N 02:05:02 65° E 02:05:23 64° ESE
MetOp-A 4.1 02:07:40 58° S 02:08:42 78° WSW 02:14:05 10° NNW
Cosmos 2026 Rocket 4.0 02:02:27 10° N 02:08:36 59° ENE 02:08:36 59° ENE
CZ-2C R/B 3.1 02:05:35 10° W 02:07:04 21° WSW 02:07:04 21° WSW
USA 234 3.1 02:04:41 17° NE 02:09:54 90° NW 02:16:28 10° SW
Cosmos 1125 Rocket 4.4 02:05:53 10° SW 02:11:00 49° WNW 02:16:09 10° N
MOS 1 4.5 02:10:42 42° S 02:12:36 68° WSW 02:18:18 10° NNW
Milstar 3 Cent rocket 3.5 02:10:24 10° SW 02:14:14 26° SSW 02:14:14 26° SSW
BREEZE-M DEB (TANK) 4.4 02:03:11 10° WNW 02:21:30 78° SW 02:22:39 63° SSE
Cosmos 1833 Rocket 4.4 02:19:23 10° N 02:21:52 20° NNE 02:21:52 20° NNE
NOSS 3-4 (A) 3.4 02:22:38 10° SW 02:28:29 74° WNW 02:34:40 10° NNE
NOSS 3-4 (C) 3.4 02:22:45 10° SW 02:28:36 75° NW 02:34:46 10° NNE
NOSS 3-2 (C) 4.0 02:20:56 10° NNW 02:28:45 80° ENE 02:29:49 69° ESE
Resurs 01 Rocket 3.7 02:36:49 22° N 02:36:49 22° N 02:38:23 10° N
ATLAS 2AS CENTAUR R/B 3.3 02:43:18 10° SW 02:51:09 66° NW 02:59:03 10° NNE
BREEZE-M DEB (TANK) 4.3 02:49:16 10° WNW 02:53:57 64° SW 02:54:11 64° SSW
CENTAUR R/B 3.2 02:52:53 10° NW 03:01:14 74° WSW 03:01:27 73° SW
Cosmos 2082 Rocket 4.4 03:03:57 10° N 03:05:22 17° N 03:05:22 17° N
ATLAS 3B R/B 3.7 03:02:51 10° NNW 03:07:18 37° N 03:07:18 37° N
USA 267 3.9 08:17:51 10° NE 08:22:28 49° NNE 08:22:28 49° NNE
Cosmos 1697 Rocket 4.3 08:48:35 26° N 08:48:35 26° N 08:51:07 10° N
Cosmos 1980 Rocket 3.1 08:52:46 43° NNE 08:52:46 43° NNE 08:56:30 10° NNE
BREEZE-M DEB (TANK) 4.1 08:55:57 63° S 08:56:43 66° SSE 09:01:17 10° ENE
USA 234 4.4 08:50:56 10° E 08:56:50 38° NNE 09:02:45 10° NNW
Cosmos 2322 Rocket 4.2 08:55:32 17° SE 08:58:04 24° E 09:02:29 10° NE
Cosmos 2263 Rocket 4.0 08:56:30 10° N 09:01:26 30° ENE 09:06:21 10° ESE
SL-4 R/B 3.8 09:08:18 33° E 09:08:18 33° E 09:11:28 10° ENE
SL-16 R/B 3.5 09:05:31 29° SE 09:07:12 35° ESE 09:12:18 10° NE
Cosmos 2228 Rocket 4.5 09:09:42 35° NE 09:09:42 35° NE 09:12:26 10° NNE
Cosmos 1934 Rocket 3.9 09:06:03 10° N 09:12:07 82° E 09:12:49 71° SSE
ADEOS II 4.1 09:07:38 10° N 09:09:06 17° NNW 09:09:06 17° NNW
ARIANE 5 R/B 3.7 09:09:52 10° N 09:12:41 32° N 09:12:41 32° N
CZ-2C R/B 3.9 09:16:19 10° NNE 09:21:02 35° E 09:24:58 14° SSE
ASTEX 1 4.3 09:16:03 10° N 09:19:17 41° N 09:19:17 41° N
IDEFIX/ARIANE 42P 3.0 09:15:59 10° N 09:20:03 52° NNW 09:20:03 52° NNW
Cosmos 1763 Rocket 4.5 09:21:34 31° SSE 09:23:31 45° ESE 09:28:33 10° NNE
SJ 16-02 2.5 09:25:36 10° N 09:29:47 42° ENE 09:33:57 10° SE
Meteor 1-14 Rocket 4.0 09:26:51 10° NNW 09:32:16 73° W 09:32:16 73° W
PSLV R/B 4.5 09:29:28 10° NNE 09:33:29 44° E 09:34:43 34° SE
Meteor 2-6 Rocket 4.1 09:32:38 55° S 09:33:58 89° E 09:39:48 10° N
H-2A R/B 2.7 09:30:45 10° SSE 09:34:59 55° ENE 09:39:20 10° N
DEBRIS 4.3 09:34:58 26° NE 09:35:01 26° NE 09:38:44 10° E
Cosmos 1238 Rocket 3.8 09:31:03 10° NNW 09:37:31 69° W 09:39:04 50° SSW
Cosmos 1605 Rocket 4.0 09:33:01 10° N 09:39:27 86° E 09:45:50 10° S
Cosmos 1535 Rocket 4.5 09:34:33 10° NNW 09:40:51 63° W 09:43:11 39° SSW
BREEZE-M DEB (TANK) 4.3 09:39:27 43° W 09:42:14 75° NNW 10:08:23 10° ENE
Landsat 5 3.7 09:41:00 10° SSE 09:45:30 77° ENE 09:50:01 10° N
Lacrosse 5 3.8 09:45:25 16° NNW 09:45:49 16° NNW 09:48:56 10° NNE
ERS-2 3.6 09:44:39 10° SE 09:48:03 38° ENE 09:51:28 10° N
Helios 1B 4.4 09:48:16 74° WNW 09:48:16 74° WNW 09:52:24 10° NNW
PAYLOAD A 3.9 09:43:36 10° NNE 09:48:17 76° ESE 09:50:29 32° S
X-37B 2.5 09:51:11 24° N 09:51:12 24° N 09:53:53 10° ENE
Cosmos 468 Rocket 3.9 09:50:04 43° SSW 09:51:53 86° WNW 09:57:11 10° NNE
ALOS 4.1 09:56:40 10° NE 10:00:49 31° E 10:04:57 10° SSE
CSL-04 DEB 4.4 09:59:46 10° S 10:04:00 68° WSW 10:08:22 10° NNW
USA 267 4.5 10:01:27 10° NNE 10:06:44 27° NNW 10:09:48 19° WNW
Cosmos 1536 3.8 10:03:39 10° N 10:07:36 48° E 10:11:32 10° SSE
NOSS 3-3 (C) 4.5 10:06:41 31° WNW 10:08:13 37° NW 10:14:02 10° NNE
Cosmos 1727 Rocket 3.9 10:04:04 10° SSW 10:10:23 72° W 10:16:44 10° N
Meteor 1-11 Rocket 3.7 10:09:19 10° N 10:15:06 89° ENE 10:20:43 10° S
Cosmos 2100 Rocket 4.5 10:09:45 10° N 10:16:06 66° E 10:22:24 10° SSE
Cosmos 921 Rocket 4.4 10:20:07 20° NW 10:20:07 20° NW 10:22:39 10° NNW
Cosmos 1812 4.0 10:21:49 23° NW 10:21:49 23° NW 10:24:12 10° NNW
deb Chang Zheng 4 3.8 10:17:09 10° NNE 10:21:25 71° ESE 10:25:39 10° S
SL-8 R/B 3.8 10:17:55 18° NW 10:21:29 77° NNE 10:26:14 10° ESE
Meteor 1-27 Rocket 3.8 10:16:11 10° SSW 10:22:06 73° W 10:28:02 10° N
Cosmos 2360 Rocket 2.5 10:19:04 10° SSW 10:24:41 71° ESE 10:30:20 10° NNE
Cosmos 1898 Rocket 3.4 10:21:12 10° NNW 10:26:28 80° WSW 10:31:45 10° SSE
ATLAS 2AS CENTAUR R/B 4.0 10:19:49 10° NNW 10:26:50 43° NE 10:33:17 10° ESE
ADEOS Rocket 3.2 10:20:27 10° SSE 10:27:27 86° WSW 10:33:44 10° NNW
Cosmos 1707 Rocket 3.7 10:26:34 18° SSW 10:29:34 47° W 10:33:47 10° N
Cosmos 1666 2.7 10:26:12 10° NNW 10:29:56 56° W 10:33:37 10° S
Cosmos 1459 Rocket 4.1 10:25:05 10° N 10:31:11 79° E 10:37:13 10° S
Cosmos 1980 Rocket 4.1 10:34:34 12° WNW 10:35:39 12° NW 10:37:57 10° NNW
SAR-Lupe-4 3.9 10:32:20 10° SSE 10:35:52 66° ENE 10:39:27 10° N
Cosmos 858 Rocket 4.5 10:31:43 10° NNW 10:36:56 89° ENE 10:42:08 10° SSE
FENGYUN 3A 3.8 10:32:23 10° NNE 10:37:49 80° ESE 10:43:13 10° S
Cosmos 2208 Rocket 4.0 10:32:45 10° SSW 10:38:01 89° ESE 10:43:16 10° NNE
USA 234 3.2 10:33:06 10° SSE 10:39:34 65° SW 10:46:03 10° NW
Cosmos 2322 Rocket 2.6 10:37:25 15° SW 10:41:46 44° WNW 10:47:12 10° N
USA 32 4.3 10:39:56 10° NNW 10:44:57 47° W 10:49:57 10° SSW
Cosmos 2263 Rocket 2.7 10:40:14 10° NW 10:45:20 36° WSW 10:50:27 10° SSW
SL-4 R/B 3.1 10:43:55 18° W 10:46:51 38° NNW 10:51:19 10° NE
SAR-Lupe-1 4.0 10:44:28 10° SSE 10:48:01 87° W 10:51:36 10° NNW
Meteor 1-4 Rocket 4.4 10:50:45 13° WNW 10:50:45 13° WNW 10:52:17 10° NW
Cosmos 1733 Rocket 2.9 10:46:41 10° NNW 10:50:59 67° W 10:55:15 10° S
SL-16 R/B 3.1 10:47:26 15° WSW 10:51:17 30° WNW 10:56:14 10° N
Cosmos 1844 Rocket 3.7 10:45:56 10° NNW 10:51:26 49° ENE 10:56:54 10° SE
Cosmos 1937 Rocket 3.4 10:46:46 10° NNW 10:51:52 65° WSW 10:56:55 10° S
Cosmos 2237 4.3 10:47:15 10° SW 10:52:53 61° WNW 10:58:32 10° NNE
Cosmos 1814 Rocket 4.0 10:50:24 10° SSW 10:55:32 64° WNW 11:00:46 10° NNE
ADEOS 3.7 10:51:04 10° N 10:56:07 51° WNW 11:01:09 10° SSW
Cosmos 44 Rocket 3.5 10:51:46 10° SW 10:56:20 51° NW 11:01:03 10° NNE
Cosmos 841 Rocket 3.8 10:51:43 10° SW 10:56:44 48° WNW 11:01:50 10° N
CZ-2C R/B 3.6 10:54:51 10° NNW 10:59:02 26° WNW 11:03:15 10° WSW
Gbstr 26 Del rocket 4.3 10:55:32 10° NW 11:03:27 78° SW 11:10:12 10° SE
Cosmos 1862 Rocket 3.9 10:59:38 10° SSW 11:03:47 42° W 11:07:57 10° N
Cosmos 2173 Rocket 4.1 10:58:04 10° NNW 11:04:13 55° W 11:10:24 10° SSW
SJ-12 4.0 11:00:42 10° NNE 11:04:50 87° E 11:08:59 10° SSW
CZ-4B R/B 2.1 11:03:54 10° SSW 11:06:40 29° W 11:09:30 10° NW
SJ 16-02 2.9 11:05:32 10° WNW 11:07:56 14° W 11:10:19 10° SW
Cosmos 1743 2.6 11:05:37 10° N 11:09:25 73° W 11:13:12 10° S
H-2A R/B 3.9 11:09:44 10° WSW 11:11:17 12° W 11:12:51 10° WNW
Cosmos 2219 Rocket 2.7 11:09:27 10° S 11:15:02 66° ESE 11:20:40 10° NNE
Cosmos 1689 Rocket 2.0 11:12:12 10° S 11:15:07 63° W 11:18:04 10° NNW
COSMOS 2428 3.3 11:16:08 10° S 11:21:45 65° ESE 11:27:25 10° NNE
